FW2899 Weather Reports


Display with metric or nautical units.
time (UTC)temp
F
wind
direction
speed
MPH
gust
MPH
rain 1hr
in
rain 24hr
in
rain mn
in
humidity
%
barometer
mb
20260906174517 78 0.0 8.0 0.00 0.00 0.00 72 1019.6
20260906173517 78 0.0 7.0 0.00 0.00 0.00 74 1019.6
20260906172517 78 0.0 2.0 0.00 0.00 0.00 75 1019.8
20260906171517 77 0.0 1.0 0.00 0.00 0.00 77 1019.7
20260906170517 76 203 1.0 5.0 0.00 0.00 0.00 75 1019.7
20260906165517 76 293 1.0 5.0 0.00 0.00 0.00 76 1019.7
20260906164517 76 158 1.0 5.0 0.00 0.00 0.00 77 1019.7
20260906163517 75 225 1.0 4.0 0.00 0.00 0.00 78 1019.7
20260906162537 75 45 1.0 4.0 0.00 0.00 0.00 78 1019.8
20260906161517 74 45 1.0 4.0 0.00 0.00 0.00 80 1019.5
20260906160517 74 23 2.0 4.0 0.00 0.00 0.00 79 1019.7
20260906155517 74 45 1.0 4.0 0.00 0.00 0.00 81 1019.7
20260906154517 74 23 1.0 4.0 0.00 0.00 0.00 80 1019.8
20260906153517 73 23 2.0 7.0 0.00 0.00 0.00 80 1019.7
20260906152517 74 90 1.0 8.0 0.00 0.00 0.00 80 1019.7
20260906151537 74 0.0 2.0 0.00 0.00 0.00 81 1019.8
20260906150517 73 68 1.0 4.0 0.00 0.00 0.00 82 1019.7
20260906145537 73 0.0 4.0 0.00 0.00 0.00 83 1019.8
20260906144517 72 158 1.0 7.0 0.00 0.00 0.00 84 1019.5
20260906143517 71 68 1.0 4.0 0.00 0.00 0.00 87 1019.3
20260906142537 69 90 1.0 4.0 0.00 0.00 0.00 90 1019.0
20260906141517 69 0.0 4.0 0.00 0.00 0.00 92 1019.2
20260906140517 68 0.0 3.0 0.00 0.00 0.00 92 1019.2
20260906135517 68 0.0 1.0 0.00 0.00 0.00 93 1019.3
20260906134517 68 0.0 2.0 0.00 0.00 0.00 93 1019.4
20260906133517 67 0.0 1.0 0.00 0.00 0.00 93 1019.4
20260906132516 67 90 1.0 4.0 0.00 0.00 0.00 93 1019.3
20260906131517 67 68 1.0 3.0 0.00 0.00 0.00 93 1019.1
20260906130516 67 0.0 2.0 0.00 0.00 0.00 93 1019.2
20260906125516 67 0.0 1.0 0.00 0.00 0.00 93 1019.1
20260906124557 67 0.0 0.0 0.00 0.00 0.00 93 1019.1
20260906123517 67 0.0 0.0 0.00 0.00 0.00 93 1019.0
20260906122517 67 0.0 0.0 0.00 0.00 0.00 93 1018.9
20260906121516 67 0.0 3.0 0.00 0.00 0.00 93 1018.8
20260906120537 67 0.0 4.0 0.00 0.00 0.00 93 1018.9
20260906115517 67 0.0 0.0 0.00 0.00 0.00 93 1018.8
20260906114517 67 0.0 2.0 0.00 0.00 0.00 93 1018.7
20260906113557 67 0.0 3.0 0.00 0.00 0.00 92 1018.8
20260906112536 67 203 1.0 3.0 0.00 0.00 0.00 92 1018.7
20260906111517 67 0.0 1.0 0.00 0.00 0.00 93 1018.7
20260906110516 67 0.0 0.0 0.00 0.00 0.00 92 1018.6
20260906105516 67 0.0 0.0 0.00 0.00 0.00 92 1018.4
20260906104517 67 0.0 0.0 0.00 0.00 0.00 92 1018.2
20260906103516 67 0.0 0.0 0.00 0.00 0.00 92 1018.1
20260906102516 67 0.0 0.0 0.00 0.00 0.00 92 1017.8
20260906101517 67 0.0 0.0 0.00 0.00 0.00 92 1018.0
20260906100516 67 0.0 0.0 0.00 0.00 0.00 91 1018.0
20260906095516 68 0.0 0.0 0.00 0.00 0.00 92 1017.9
20260906094516 68 0.0 0.0 0.00 0.00 0.00 92 1017.9
20260906093516 68 0.0 3.0 0.00 0.00 0.00 92 1017.9
20260906092516 68 0.0 1.0 0.00 0.00 0.00 92 1017.5
20260906091516 68 0.0 3.0 0.00 0.00 0.00 92 1017.4
20260906090516 68 0.0 0.0 0.00 0.00 0.00 91 1017.4
20260906085516 68 0.0 0.0 0.00 0.00 0.00 91 1017.3
20260906084516 68 0.0 0.0 0.00 0.00 0.00 91 1017.5
20260906083516 68 0.0 3.0 0.00 0.00 0.00 91 1017.5
20260906082516 68 0.0 2.0 0.00 0.00 0.00 91 1017.8
20260906081516 68 0.0 0.0 0.00 0.00 0.00 91 1017.9
20260906080516 69 0.0 0.0 0.00 0.00 0.00 91 1017.8
20260906075516 69 0.0 0.0 0.00 0.00 0.00 90 1018.0
20260906074516 69 0.0 0.0 0.00 0.00 0.00 90 1017.8
20260906073516 69 0.0 4.0 0.00 0.00 0.00 90 1017.8
20260906072516 69 0.0 0.0 0.00 0.00 0.00 91 1018.0
20260906071516 69 0.0 2.0 0.00 0.00 0.00 91 1018.0
20260906070516 69 0.0 1.0 0.00 0.00 0.00 91 1018.0
20260906065516 69 0.0 1.0 0.00 0.00 0.00 91 1018.1
20260906064516 69 0.0 2.0 0.00 0.00 0.00 91 1018.0
20260906063516 69 0.0 3.0 0.00 0.00 0.00 91 1017.9
20260906062516 69 0.0 3.0 0.00 0.00 0.00 90 1018.0
20260906061516 69 0.0 1.0 0.00 0.00 0.00 90 1018.1
20260906060616 69 0.0 2.0 0.00 0.00 0.00 89 1018.1
20260906055516 69 0.0 2.0 0.00 0.00 0.00 89 1018.1
20260906054516 69 0.0 0.0 0.00 0.00 0.00 89 1018.1
20260906053516 69 0.0 0.0 0.00 0.00 0.00 89 1018.1
20260906052516 69 0.0 0.0 0.00 0.00 0.00 89 1018.2
20260906051516 70 0.0 0.0 0.00 0.00 0.00 88 1018.0
20260906050516 70 0.0 0.0 0.00 0.00 0.00 88 1018.1
20260906045516 70 0.0 2.0 0.00 0.00 0.00 88 1018.0
20260906044516 71 0.0 1.0 0.00 0.00 0.00 88 1017.8
20260906043516 71 0.0 1.0 0.00 0.00 0.00 87 1018.1
20260906042516 71 0.0 1.0 0.00 0.00 0.00 88 1018.0
20260906041536 71 0.0 2.0 0.00 0.00 0.00 88 1018.0
20260906040516 71 0.0 1.0 0.00 0.00 0.00 88 1017.9
20260906035516 71 0.0 0.0 0.00 0.00 0.00 89 1018.1
20260906034515 71 0.0 0.0 0.00 0.00 0.00 89 1018.0
20260906033515 71 0.0 1.0 0.00 0.00 0.00 89 1018.2
20260906032515 71 0.0 0.0 0.00 0.00 0.00 89 1018.0
20260906031515 71 0.0 0.0 0.00 0.00 0.00 89 1017.8
20260906030515 71 0.0 0.0 0.00 0.00 0.00 89 1017.6
20260906025516 71 0.0 0.0 0.00 0.00 0.00 89 1017.6
20260906024535 71 0.0 0.0 0.00 0.00 0.00 89 1017.5
20260906023515 72 0.0 0.0 0.00 0.00 0.00 89 1017.4
20260906022536 72 0.0 0.0 0.00 0.00 0.00 88 1017.1
20260906021516 72 0.0 0.0 0.00 0.00 0.00 88 1016.9
20260906020515 72 0.0 0.0 0.00 0.00 0.00 88 1016.7
20260906015516 72 0.0 0.0 0.00 0.00 0.00 88 1016.6
20260906014515 72 0.0 0.0 0.00 0.00 0.00 88 1016.4
20260906013515 72 0.0 0.0 0.00 0.00 0.00 88 1016.3
20260906012515 72 0.0 0.0 0.00 0.00 0.00 87 1016.1
20260906011535 73 0.0 0.0 0.00 0.00 0.00 87 1016.0
20260906010515 73 0.0 0.0 0.00 0.00 0.00 87 1016.0
20260906005516 73 0.0 0.0 0.00 0.00 0.00 86 1015.9
20260906004536 73 0.0 0.0 0.00 0.00 0.00 86 1015.7
20260906003515 74 0.0 0.0 0.00 0.00 0.00 85 1015.8
20260906002515 74 0.0 0.0 0.00 0.00 0.00 85 1015.8
20260906001516 75 0.0 0.0 0.00 0.00 0.00 84 1015.9
20260906000517 75 0.0 0.0 0.00 0.00 0.00 84 1015.9
20260905235517 75 0.0 3.0 0.00 0.00 0.00 83 1015.9
20260905234517 75 0.0 4.0 0.00 0.00 0.00 83 1015.8
20260905233517 76 0.0 1.0 0.00 0.00 0.00 83 1015.7
20260905232517 76 0.0 5.0 0.00 0.00 0.00 83 1015.8
20260905231517 76 0.0 3.0 0.00 0.00 0.00 83 1015.6
20260905230517 76 0.0 1.0 0.00 0.00 0.00 83 1015.6
20260905225517 76 45 1.0 4.0 0.00 0.00 0.00 81 1015.2
20260905224517 76 45 1.0 4.0 0.00 0.00 0.00 82 1015.2
20260905223537 76 45 1.0 6.0 0.00 0.00 0.00 81 1015.2
20260905222517 76 0.0 4.0 0.00 0.00 0.00 83 1015.2
20260905221517 76 45 1.0 5.0 0.00 0.00 0.00 82 1015.2
20260905220517 76 0.0 9.0 0.00 0.00 0.00 82 1015.2
20260905215517 76 45 2.0 5.0 0.00 0.00 0.00 82 1015.1
20260905214517 76 45 2.0 7.0 0.00 0.00 0.00 82 1015.1
20260905213557 76 0.0 4.0 0.00 0.00 0.00 82 1015.4
20260905212517 77 0.0 6.0 0.00 0.00 0.00 81 1015.5
20260905211517 77 0.0 4.0 0.00 0.00 0.00 82 1015.6
20260905210517 77 0.0 4.0 0.00 0.00 0.00 81 1015.7
20260905205517 78 0.0 1.0 0.00 0.00 0.00 80 1015.9
20260905204537 78 0.0 1.0 0.00 0.00 0.00 80 1016.0
20260905203517 78 0.0 2.0 0.00 0.00 0.00 79 1016.1
20260905202517 79 0.0 0.0 0.00 0.00 0.00 79 1016.3
20260905201517 79 0.0 0.0 0.00 0.00 0.00 78 1016.4
20260905200517 78 0.0 0.0 0.00 0.00 0.00 78 1016.6
20260905195517 78 0.0 0.0 0.00 0.00 0.00 79 1016.6
20260905194517 78 0.0 0.0 0.00 0.00 0.00 79 1016.8
20260905193517 78 0.0 0.0 0.00 0.00 0.00 80 1016.8
20260905192517 78 0.0 0.0 0.00 0.00 0.00 79 1016.9
20260905191517 78 0.0 0.0 0.00 0.00 0.00 80 1017.0
20260905190517 78 0.0 0.0 0.00 0.00 0.00 80 1017.0
20260905185517 78 0.0 3.0 0.00 0.00 0.00 81 1016.8
20260905184517 77 0.0 4.0 0.00 0.00 0.00 82 1016.8
20260905183517 76 0.0 3.0 0.00 0.00 0.00 87 1017.1
20260905182517 75 0.0 4.0 0.00 0.00 0.00 84 1017.3
20260905181517 75 0.0 0.0 0.00 0.00 0.00 85 1017.3
20260905180517 75 0.0 0.0 0.00 0.00 0.00 86 1017.5
20260905175517 75 0.0 0.0 0.00 0.00 0.00 85 1017.5